GW5451 Weather Reports


time (UTC)temp
C
wind
direction
speed
KPH
gust
KPH
rain 1hr
cm
rain 24hr
cm
rain mn
cm
humidity
%
barometer
mb
20260504081610 2 234 0.0 0.0 0.00 0.00 0.00 52 1009.9
20260504044530 5 236 0.0 0.0 0.00 0.00 0.00 34 1009.8
20260504043056 5 236 0.0 0.0 0.00 0.00 0.00 32 1009.7
20260504041545 6 236 0.0 0.0 0.00 0.00 0.00 31 1009.6
20260504040128 6 236 0.0 0.0 0.00 0.00 0.00 30 1009.5
20260504034540 6 236 0.0 0.0 0.00 0.00 0.00 28 1009.4
20260504033055 7 236 0.0 0.0 0.00 0.00 0.00 27 1009.1
20260504031545 7 236 0.0 0.0 0.00 0.00 0.00 24 1009.0
20260504030056 8 236 0.0 0.0 0.00 0.00 0.00 24 1009.0
20260504024558 8 236 0.0 0.0 0.00 0.00 0.00 21 1009.0
20260504023050 10 234 0.0 0.0 0.00 0.00 0.00 17 1009.0
20260504021545 10 234 0.0 0.0 0.00 0.00 0.00 17 1009.2
20260504020037 10 234 0.0 0.0 0.00 0.00 0.00 17 1009.3
20260504014608 11 234 3.2 0.0 0.00 0.00 0.00 13 1009.1
20260504013035 11 230 3.2 0.0 0.00 0.00 0.00 11 1008.9
20260504011539 11 244 4.8 0.0 0.00 0.00 0.00 11 1008.9
20260504010047 11 222 3.2 0.0 0.00 0.00 0.00 13 1008.9
20260504004600 12 230 4.8 0.0 0.00 0.00 0.00 11 1008.8
20260504003047 12 237 4.8 0.0 0.00 0.00 0.00 10 1008.5
20260504001545 12 237 3.2 0.0 0.00 0.00 0.00 10 1008.3
20260504000043 13 274 4.8 0.0 0.00 0.00 0.00 9 1008.2
20260503234534 14 240 6.4 0.0 0.00 0.00 0.00 7 1008.0
20260503233041 14 274 9.7 0.0 0.00 0.00 0.00 7 1008.0
20260503231610 15 271 9.7 0.0 0.00 0.00 0.00 6 1007.8
20260503230039 15 289 11.3 0.0 0.00 0.00 0.00 8 1007.8
20260503224548 15 277 14.5 0.0 0.00 0.00 0.00 6 1007.8
20260503223039 15 263 12.9 0.0 0.00 0.00 0.00 6 1007.7
20260503221534 15 260 14.5 0.0 0.00 0.00 0.00 6 1007.8
20260503220054 15 281 12.9 0.0 0.00 0.00 0.00 6 1007.7
20260503214549 15 282 12.9 0.0 0.00 0.00 0.00 7 1007.8
20260503213045 15 278 14.5 0.0 0.00 0.00 0.00 7 1007.6
20260503211545 15 278 11.3 0.0 0.00 0.00 0.00 6 1007.5
20260503210030 15 304 11.3 0.0 0.00 0.00 0.00 9 1007.5
20260503204540 15 274 8.0 0.0 0.00 0.00 0.00 8 1007.6
20260503203033 14 292 9.7 0.0 0.00 0.00 0.00 7 1007.7
20260503201547 14 288 11.3 0.0 0.00 0.00 0.00 8 1007.8
20260503200043 14 291 16.1 0.0 0.00 0.00 0.00 6 1007.9
20260503194542 15 304 6.4 0.0 0.00 0.00 0.00 7 1008.1
20260503193046 14 308 14.5 0.0 0.00 0.00 0.00 5 1008.3
20260503191536 15 353 9.7 0.0 0.00 0.00 0.00 7 1008.5
20260503190030 14 322 11.3 0.0 0.00 0.00 0.00 9 1008.7
20260503184619 14 329 16.1 0.0 0.00 0.00 0.00 6 1008.9
20260503183054 13 291 16.1 0.0 0.00 0.00 0.00 7 1009.0
20260503181545 13 296 14.5 0.0 0.00 0.00 0.00 7 1009.0
20260503180043 13 318 19.3 0.0 0.00 0.00 0.00 7 1009.2
20260503174558 12 360 12.9 0.0 0.00 0.00 0.00 9 1009.3
20260503173034 12 335 14.5 0.0 0.00 0.00 0.00 8 1009.5
20260503120123 6 353 6.4 0.0 0.00 0.00 0.00 26 1010.8